Starlink 32580

operational
NORAD ID: 62075 Int'l Des: 2024-217 Owner: SPXS Country: US Constellation: starlink
LEOCIRCULAR

About Starlink 32580

Description loading...

Live Position

Loading 3D Globe...

Upcoming Passes

Altitude History

Altitude vs Time

uPlot chart will show altitude changes over time

Two-Line Element Set

1 62075U 24217U 26102.48889178 .00018128 00000-0 62271-3 0 9991
2 62075 53.1622 24.2963 0001384 89.4860 270.6300 15.30198347 78776
Epoch: Apr 12, 2026 • Age: 20 hours

Current Status

Altitude 494.4 km
Velocity 7.62 km/s
Sub-Earth Point -52.78°S, 37.67°W
Launch Date Nov 24, 2024
Age 1.3 years
Type internet

Technical Details

Classification Payload
Mass 730.00 kg
Dry Mass 700.00 kg
Total Mass 730.00 kg
Length 0.30 m
Diameter 4.10 m
Span 29.00 m
Shape Box + pan
Manufacturer SPXS
Bus Type Starlink V2M
Phase Status In Orbit
Owner/State SPXS/US

Large Constellations

Loading constellations...